| time (UTC) | temp F | wind direction | speed MPH | gust MPH | rain 1hr in | rain 24hr in | rain mn in | humidity % | barometer mb |
| 20260505082405 | 60 | 67 | 2.0 | 3.0 | 0.00 | 0.00 | 0.00 | 84 | 1030.7 |
| 20260505081905 | 60 | 66 | 1.0 | 3.0 | 0.00 | 0.00 | 0.00 | 84 | 1030.7 |
| 20260505081405 | 60 | 66 | 2.0 | 3.0 | 0.00 | 0.00 | 0.00 | 84 | 1030.8 |
| 20260505075905 | 61 | 65 | 3.0 | 6.0 | 0.00 | 0.00 | 0.00 | 83 | 1030.8 |
| 20260505075406 | 60 | 52 | 3.0 | 5.0 | 0.00 | 0.00 | 0.00 | 84 | 1030.8 |
| 20260505074906 | 60 | 46 | 2.0 | 3.0 | 0.00 | 0.00 | 0.00 | 84 | 1030.8 |
| 20260505072405 | 60 | 38 | 2.0 | 3.0 | 0.00 | 0.00 | 0.00 | 84 | 1030.8 |
| 20260505070906 | 60 | 30 | 1.0 | 3.0 | 0.00 | 0.00 | 0.00 | 83 | 1030.6 |
| 20260505062905 | 61 | 20 | 5.0 | 6.0 | 0.00 | 0.00 | 0.00 | 83 | 1030.6 |
| 20260505061906 | 61 | 27 | 5.0 | 7.0 | 0.00 | 0.00 | 0.00 | 82 | 1030.5 |
| 20260505061405 | 61 | 27 | 5.0 | 6.0 | 0.00 | 0.00 | 0.00 | 83 | 1030.5 |
| 20260505060406 | 60 | 19 | 3.0 | 6.0 | 0.00 | 0.00 | 0.00 | 84 | 1030.5 |
| 20260505055404 | 61 | 33 | 2.0 | 3.0 | 0.00 | 0.00 | 0.00 | 83 | 1030.4 |
| 20260505054905 | 61 | 34 | 2.0 | 3.0 | 0.00 | 0.00 | 0.00 | 83 | 1030.3 |
| 20260505053906 | 61 | 38 | 3.0 | 3.0 | 0.00 | 0.00 | 0.00 | 82 | 1030.3 |
| 20260505053406 | 62 | 40 | 3.0 | 3.0 | 0.00 | 0.00 | 0.00 | 82 | 1030.2 |
| 20260505051905 | 63 | 25 | 3.0 | 5.0 | 0.00 | 0.00 | 0.00 | 81 | 1030.2 |
| 20260505051406 | 63 | 23 | 3.0 | 5.0 | 0.00 | 0.00 | 0.00 | 80 | 1030.3 |
| 20260505050905 | 63 | 45 | 3.0 | 5.0 | 0.00 | 0.00 | 0.00 | 79 | 1030.3 |
| 20260505041406 | 65 | 60 | 5.0 | 7.0 | 0.00 | 0.00 | 0.00 | 75 | 1030.4 |
| 20260505040905 | 65 | 54 | 5.0 | 7.0 | 0.00 | 0.00 | 0.00 | 75 | 1030.5 |
| 20260505035906 | 66 | 55 | 4.0 | 7.0 | 0.00 | 0.00 | 0.00 | 75 | 1030.5 |
| 20260505034405 | 66 | 43 | 2.0 | 3.0 | 0.00 | 0.00 | 0.00 | 74 | 1030.6 |
| 20260505032905 | 66 | 43 | 0.0 | 2.0 | 0.00 | 0.00 | 0.00 | 73 | 1030.6 |
| 20260505032405 | 66 | 43 | 2.0 | 5.0 | 0.00 | 0.00 | 0.00 | 74 | 1030.6 |
| 20260505030905 | 66 | 87 | 2.0 | 3.0 | 0.00 | 0.00 | 0.00 | 75 | 1030.6 |
| 20260505025405 | 66 | 71 | 5.0 | 6.0 | 0.00 | 0.00 | 0.00 | 75 | 1030.7 |
| 20260505024905 | 66 | 63 | 4.0 | 5.0 | 0.00 | 0.00 | 0.00 | 75 | 1030.7 |
| 20260505023405 | 66 | 81 | 5.0 | 6.0 | 0.00 | 0.00 | 0.00 | 74 | 1030.7 |
| 20260505022905 | 66 | 70 | 2.0 | 6.0 | 0.00 | 0.00 | 0.00 | 74 | 1030.7 |
| 20260505022406 | 66 | 73 | 6.0 | 7.0 | 0.00 | 0.00 | 0.00 | 74 | 1030.7 |
| 20260505021905 | 66 | 67 | 3.0 | 6.0 | 0.00 | 0.00 | 0.00 | 74 | 1030.7 |
| 20260505021405 | 66 | 86 | 4.0 | 7.0 | 0.00 | 0.00 | 0.00 | 75 | 1030.7 |
| 20260505020905 | 66 | 67 | 5.0 | 7.0 | 0.00 | 0.00 | 0.00 | 74 | 1030.7 |
| 20260505020405 | 66 | 87 | 4.0 | 8.0 | 0.00 | 0.00 | 0.00 | 73 | 1030.7 |
| 20260505014405 | 66 | 95 | 5.0 | 9.0 | 0.00 | 0.00 | 0.00 | 75 | 1030.9 |
| 20260505013405 | 66 | 89 | 4.0 | 9.0 | 0.00 | 0.00 | 0.00 | 74 | 1031.1 |
| 20260505012906 | 66 | 95 | 5.0 | 9.0 | 0.00 | 0.00 | 0.00 | 73 | 1031.2 |
| 20260505010405 | 65 | 69 | 1.0 | 3.0 | 0.00 | 0.00 | 0.00 | 74 | 1031.4 |
| 20260505004904 | 64 | 72 | 5.0 | 6.0 | 0.00 | 0.00 | 0.00 | 75 | 1031.7 |
| 20260505002905 | 64 | 87 | 1.0 | 3.0 | 0.00 | 0.00 | 0.00 | 74 | 1032.0 |
| 20260505000906 | 65 | 59 | 5.0 | 9.0 | 0.00 | 0.00 | 0.00 | 73 | 1032.3 |
| 20260504235905 | 64 | 97 | 1.0 | 3.0 | 0.00 | 0.00 | 0.00 | 73 | 1032.4 |
| 20260504235405 | 64 | 97 | 0.0 | 1.0 | 0.00 | 0.00 | 0.00 | 74 | 1032.4 |
| 20260504234405 | 64 | 99 | 2.0 | 3.0 | 0.00 | 0.00 | 0.00 | 74 | 1032.5 |
| 20260504233405 | 64 | 151 | 2.0 | 3.0 | 0.00 | 0.00 | 0.00 | 72 | 1032.7 |
| 20260504231905 | 63 | 211 | 0.0 | 0.0 | 0.00 | 0.00 | 0.00 | 74 | 1032.9 |
| 20260504230404 | 63 | 212 | 0.0 | 1.0 | 0.00 | 0.00 | 0.00 | 77 | 1033.1 |
| 20260504225905 | 63 | 212 | 0.0 | 2.0 | 0.00 | 0.00 | 0.00 | 77 | 1033.1 |
| 20260504225405 | 62 | 212 | 2.0 | 5.0 | 0.00 | 0.00 | 0.00 | 79 | 1033.1 |
| 20260504224405 | 61 | 223 | 1.0 | 3.0 | 0.00 | 0.00 | 0.00 | 80 | 1033.1 |
| 20260504223905 | 61 | 223 | 2.0 | 3.0 | 0.00 | 0.00 | 0.00 | 80 | 1033.1 |
| 20260504222904 | 60 | 231 | 0.0 | 1.0 | 0.00 | 0.00 | 0.00 | 81 | 1033.2 |
| 20260504222403 | 60 | 231 | 0.0 | 2.0 | 0.00 | 0.00 | 0.00 | 82 | 1033.1 |
| 20260504221405 | 60 | 240 | 2.0 | 3.0 | 0.00 | 0.00 | 0.00 | 82 | 1033.1 |
| 20260504220905 | 60 | 246 | 2.0 | 3.0 | 0.00 | 0.00 | 0.00 | 83 | 1033.1 |
| 20260504220405 | 59 | 246 | 0.0 | 0.0 | 0.00 | 0.00 | 0.00 | 82 | 1033.2 |
| 20260504215905 | 59 | 246 | 0.0 | 0.0 | 0.00 | 0.00 | 0.00 | 83 | 1033.2 |
| 20260504215405 | 58 | 246 | 0.0 | 2.0 | 0.00 | 0.00 | 0.00 | 83 | 1033.2 |
| 20260504214904 | 58 | 245 | 2.0 | 3.0 | 0.00 | 0.00 | 0.00 | 84 | 1033.2 |
| 20260504213905 | 58 | 214 | 1.0 | 2.0 | 0.00 | 0.00 | 0.00 | 85 | 1033.1 |
| 20260504211405 | 56 | 206 | 3.0 | 3.0 | 0.00 | 0.00 | 0.00 | 87 | 1033.1 |
| 20260504210405 | 55 | 224 | 2.0 | 3.0 | 0.00 | 0.00 | 0.00 | 89 | 1033.1 |
| 20260504203404 | 54 | 287 | 1.0 | 3.0 | 0.00 | 0.00 | 0.00 | 90 | 1033.2 |
| 20260504202405 | 54 | 290 | 0.0 | 1.0 | 0.00 | 0.00 | 0.00 | 91 | 1033.3 |
| 20260504201405 | 54 | 290 | 0.0 | 1.0 | 0.00 | 0.00 | 0.00 | 92 | 1033.2 |
| 20260504195404 | 52 | 282 | 2.0 | 3.0 | 0.00 | 0.00 | 0.00 | 91 | 1033.1 |
| 20260504194904 | 52 | 198 | 0.0 | 1.0 | 0.00 | 0.00 | 0.00 | 92 | 1033.0 |
| 20260504194405 | 52 | 193 | 1.0 | 3.0 | 0.00 | 0.00 | 0.00 | 91 | 1032.9 |
| 20260504193905 | 52 | 193 | 3.0 | 3.0 | 0.00 | 0.00 | 0.00 | 91 | 1032.8 |
| 20260504192405 | 53 | 239 | 0.0 | 2.0 | 0.00 | 0.00 | 0.00 | 92 | 1032.8 |
| 20260504191405 | 52 | 243 | 2.0 | 3.0 | 0.00 | 0.00 | 0.00 | 92 | 1032.8 |
| 20260504185406 | 53 | 252 | 1.0 | 1.0 | 0.00 | 0.00 | 0.00 | 92 | 1032.8 |
| 20260504183905 | 53 | 171 | 0.0 | 0.0 | 0.00 | 0.00 | 0.00 | 92 | 1032.8 |
| 20260504181906 | 53 | 171 | 0.0 | 0.0 | 0.00 | 0.00 | 0.00 | 92 | 1032.9 |
| 20260504180906 | 53 | 171 | 0.0 | 2.0 | 0.00 | 0.00 | 0.00 | 92 | 1032.9 |
| 20260504175406 | 53 | 173 | 3.0 | 5.0 | 0.00 | 0.00 | 0.00 | 92 | 1032.8 |
| 20260504174406 | 52 | 174 | 4.0 | 6.0 | 0.00 | 0.00 | 0.00 | 92 | 1032.8 |
| 20260504173905 | 52 | 174 | 3.0 | 5.0 | 0.00 | 0.00 | 0.00 | 92 | 1032.8 |
| 20260504173406 | 52 | 187 | 5.0 | 6.0 | 0.00 | 0.00 | 0.00 | 92 | 1032.9 |
| 20260504172906 | 52 | 224 | 1.0 | 3.0 | 0.00 | 0.00 | 0.00 | 92 | 1033.0 |
| 20260504171406 | 52 | 240 | 2.0 | 3.0 | 0.00 | 0.00 | 0.00 | 92 | 1033.0 |
| 20260504160406 | 51 | 223 | 1.0 | 2.0 | 0.00 | 0.00 | 0.00 | 93 | 1033.0 |
| 20260504140406 | 52 | 270 | 1.0 | 3.0 | 0.00 | 0.00 | 0.00 | 91 | 1034.2 |
| 20260504100406 | 50 | 43 | 0.0 | 2.0 | 0.00 | 0.00 | 0.00 | 90 | 1034.7 |